sat.trackr.live / text

‹ back to catalog

STARLINK-33771

NORAD 63659 · 2025-083AB

PAYLOAD ACTIVE UNKNOWN

§ Identity

Operator
Country
US
Launch date
2025-04-25
Launch site
AFETR
Launch vehicle
Mass (kg)
RCS (m²)

Purposes: comms

External: N2YO · Heavens-Above · Gunter

§ Orbital elements

Epoch: 2026-09-20T05:57:48.856032Z

Period
94.27 min
Inclination
42.9993°
Eccentricity
0.0000671
Mean motion
15.27582386 rev/d
Perigee alt
482.6 km
Apogee alt
483.5 km
Semi-major
6,861.2 km
B*
2.4222e-4
RAAN
349.8383°
Arg perigee
186.6512°
Mean anomaly
173.4331°
Rev number
7,981

§ Raw data

STARLINK-337711 63659U 25083AB  26263.24848213  .00006410  00000+0  24222-3 0  99932 63659  42.9993 349.8383 0000671 186.6512 173.4331 15.27582386 79812

JSON: /api/v1/satellites/63659 · /tle

For live sub-satellite position, see the globe view (requires WebGL).

§ Visibility from observer

Set your observer location to see the next 7 days of passes ≥ 10°. The values pass through the URL so the page stays shareable.

No JS? Fill the form by hand. The geolocation button needs JavaScript.